423  
ASUS43 KFSD 201110  
RWRFSD  
 
WEATHER ROUNDUP FOR SE SOUTH DAKOTA/SW MINNESOTA/NW IOWA  
NATIONAL WEATHER SERVICE SIOUX FALLS SD  
500 AM CST WED FEB 20 2019  
 
NOTE: "FAIR" INDICATES FEW OR NO CLOUDS BELOW 12,000 FEET WITH NO  
SIGNIFICANT WEATHER AND OR S TO VISIBILITY
.  
 
 
SDZ038>040-050-052>070-201200-  
SOUTHEAST SOUTH DAKOTA  
 
CITY SKY/WX TMP DP RH WIND PRES REMARKS
 
BROOKINGS LGT SNOW 11 8 88 E14 29.80F VSB 3/4 WCI -5  
CHAMBERLAIN LGT SNOW 15 15 99 E5 29.73F WCI 8  
HURON LGT SNOW 16 12 84 SE13G22 29.77F VSB 3/4 WCI 2  
MADISON LGT SNOW 14 14 100 E14 29.77F WCI -1  
MITCHELL LGT SNOW 16 12 84 E13 29.79F VSB 1 WCI 2  
SIOUX FALLS LGT SNOW 18 15 88 E12 29.78F VSB 1 WCI 5  
WINNER LGT SNOW 15 11 83 SE5 29.69F FOG WCI 8  
YANKTON LGT SNOW 16 14 92 E7 29.76F FOG WCI 6  

 
 
MNZ071-072-080-081-089-090-097-098-201200-  
SOUTHWEST MINNESOTA  
 
CITY SKY/WX TMP DP RH WIND PRES REMARKS
 
FAIRMONT LGT SNOW 22 20 92 E21 29.82F FOG WCI 6  
JACKSON CLOUDY 21 19 93 E10 29.79F WCI 10  
LUVERNE SNOW 18 14 86 NE7 29.81F VSB 1/2 WCI 8  
MARSHALL LGT SNOW 12 10 92 N6 29.88F VSB 3/4 WCI 3  
MONTEVIDEO LGT SNOW 16 10 79 SE8 29.90F WCI 5  
PIPESTONE LGT SNOW 12 10 92 E5 29.80F VSB 3/4 WCI 4  
REDWOOD FALLS SNOW 17 15 92 E8 29.87F VSB 1/2 WCI 7  
TRACY SNOW 15 13 92 NW3 29.85F VSB 1/2  
WINDOM LGT SNOW 18 16 93 NE7 29.81F VSB 3/4 WCI 8  
WORTHINGTON SNOW 17 15 92 NE3 29.83R VSB 1/2  

 
 
IAZ001>003-012>014-020>022-031-032-NEZ013-014-SDZ071-201200-  
NORTHWEST IOWA  
 
CITY SKY/WX TMP DP RH WIND PRES REMARKS
 
CHEROKEE LGT SNOW 22 22 100 E5 29.79F WCI 16  
DENISON CLOUDY 25 25 100 CALM 29.79F FOG  
ESTHERVILLE LGT SNOW 21 19 92 E17 29.78F FOG WCI 7  
ORANGE CITY LGT SNOW 19 19 100 E5 29.78F WCI 13  
SHELDON LGT SNOW 19 19 100 NE6 29.78F WCI 11  
SIOUX CITY LGT SNOW 20 17 88 E6 29.78F FOG WCI 12  
SPENCER SNOW 23 20 88 S8 29.81R VSB 1/4 WCI 14  
STORM LAKE LGT SNOW 21 21 100 S6 29.78F WCI 14  

 
 
ABBREVIATIONS USED IN REMARKS  
TC - TEMPERATURE IN CELSIUS  
WCI - WIND CHILL INDEX  
HX - HEAT INDEX  
VSB - VISIBILITY  
 
 
 
CLICK HERE TO GO TO PREVIOUS BULLETINS.

The Nexlab SD Page
The Nexlab IA Page
The Nexlab MN Page
The Nexlab NE Page Main Text Page